Flag for U.S.A. Weather past 2 weeks in Frankfort, Kentucky, U.S.A.

Now
54 °F

Low clouds.


Feels Like: 50 °F
Forecast: 31 / 59 °F
Wind: 14 mph from Southwest

Location: Capital City Airport

Current Time: Mar 3, 2015 at 2:55:14 PM

Latest Report: Mar 3, 2015 at 1:53 PM


Visibility: 10 mi

Pressure: 29.87 "Hg

Humidity: 86%

Dew point: 50 °F

Location of FrankfortLocation

Historic Weather in Frankfort — Graph

°F

Frankfort temperature yesterday

Maximum temperature yesterday: 36 °F (at 2:53 PM)
Minimum temperature yesterday: 26 °F (at 7:01 AM)
Average temperature yesterday: 31 °F

Past Weeks' High & Low Weather Summary

 TemperatureHumidityPressure
High54 °F (Mar 3, 1:53 PM)97% (Feb 21, 3:53 PM)30.72 "Hg (Feb 21, 3:53 PM)
Low-19 °F (Feb 20, 4:53 AM)35% (Feb 27, 3:53 PM)29.80 "Hg (Feb 18, 6:53 AM)
Average21 °F66%30.24 "Hg
* Reported Feb 16 1:53 PM — Mar 3 1:53 PM, Frankfort, Weather by CustomWeather, © 2015

Note: Actual official high and low records may vary slightly from our data, if they occured in-between our weather recording intervals... More about our weather records

Advertising

Frankfort weather history for previous 24 hours

 ConditionsComfort  
Time TempWeatherWind HumidityBarometerVisibility
1:53 PM
Tue, Mar 3
54 °FLow clouds.14 mph86%29.87 "Hg10 mi
12:53 PM49 °FLow clouds.8 mph90%29.93 "Hg7 mi
11:53 AM42 °FLight rain. Fog.9 mph92%29.96 "Hg6 mi
10:53 AM38 °FLight rain. Overcast.8 mph83%30.01 "Hg4 mi
9:53 AM37 °FOvercast.5 mph70%30.04 "Hg10 mi
9:01 AM34 °FLow clouds.7 mph67%30.06 "Hg10 mi
7:53 AM33 °FOvercast.6 mph66%30.10 "Hg10 mi
6:53 AM32 °FOvercast.5 mph66%30.13 "Hg10 mi
5:53 AM31 °FOvercast.6 mph67%30.14 "Hg10 mi
4:53 AM30 °FOvercast.7 mph66%30.16 "Hg10 mi
3:53 AM29 °FOvercast.5 mph66%30.19 "Hg10 mi
2:53 AM28 °FClear.3 mph69%30.22 "Hg10 mi
1:53 AM27 °FClear.5 mph69%30.24 "Hg10 mi
12:53 AM27 °FClear.7 mph66%30.27 "Hg10 mi
11:53 PM
Mon, Mar 2
27 °FClear.6 mph66%30.31 "Hg10 mi
10:53 PM29 °FClear.8 mph61%30.35 "Hg10 mi
9:53 PM30 °FClear.9 mph59%30.36 "Hg10 mi
8:53 PM32 °FClear.8 mph54%30.39 "Hg10 mi
7:53 PM32 °FClear.6 mph61%30.41 "Hg10 mi
6:53 PM33 °FClear.5 mph58%30.43 "Hg10 mi
5:53 PM34 °FSunny.6 mph54%30.42 "Hg10 mi
4:53 PM36 °FSunny.N/A50%30.42 "Hg10 mi
3:53 PM36 °FSunny.No wind48%30.44 "Hg10 mi
2:53 PM36 °FSunny.5 mph50%30.44 "Hg10 mi
Weather by CustomWeather, © 2015

See weather overviewHow to use our weather pages